SL-8 R/B

Satellite information

Favourite Embed

Satellite Type and Status

ROCKET BODYIN ORBIT

Key statistics

Satellite SL-8 R/B at a glance.

Uptime

17725

Days in orbit

Revolutions

≈ 13.8

Per day

Orbit

LEO

Low Earth Orbit

Inclination

82.9

Latest

Satellite identification and parameters

Extended collection of information and parameters for SL-8 R/B.

Object identification

Identified? True

Debris? False

Object name: SL-8 R/B

International designator: 1976-128B

Object number (NORAD): 9638

Object ID (CCSDS): 9638

Country: COMMONWEALTH OF INDEPENDENT STATES (CIS)

Current information (Y/N): Y

RCS size: LARGE

Orbital parameters

Period: 104.46 minutes

Inclination: 82.9375 deg

SMA: 7347.299 km

Apoapsis: 991.535 km

Periapsis: 946.793 km

RAAN: 8.8728 deg

Eccentricy: 0.0030448

Argument of periapsis: 327.815 deg

Mean anomaly: 32.1149 deg

Mean motion: 13.78513987 rev/day

Mean motion (dot): 0.00000001 rev/day2

B* drag term: -0.000014126 1/REarth

Two-line elements (TLE)

Creation date: July 9, 2025, 2:22 a.m.

Reference frame: TEME

Reference center: EARTH

Epoch: July 8, 2025, 7:50 p.m. UTC

TLE line 0: 0 SL-8 R/B

TLE line 1: 1 09638U 76128B 25189.82643772 .00000001 00000-0 -14126-4 0 9994

TLE line 2: 2 09638 82.9375 8.8728 0030448 327.8150 32.1149 13.78513987439839

Live tracking on map

Real-time ground track for satellite SL-8 R/B.

In-orbit conjunctions

A list of the most updated potential collisions computed for object SL-8 R/B.

Target Orbit TCA Probability of collision Miss distance Type
NIMBUS 2 DEB SSO 2025-02-24 03:10:19 0.0001105575 106.0 (m) DEBRIS
COSMOS 1275 DEB LEO 2024-12-26 23:30:38 0.000307689 126.0 (m) DEBRIS

Associated space launch

Molniya communication satellites operating from a highly elliptical orbit

SL-8 R/B was lifted into orbit during the mission ‘Molniya-M | Molniya-3 17L’, on board a Molniya-M space rocket.

The launch took place on Dec. 28, 1976, 6:38 a.m. from 43/4 (43R).

For more information about the launch, click the button.

Launch to space Molniya-M | Molniya-3 17L
Molniya-M | Molniya-3 17L

Agency: N/A

Status: Launch Successful

Launch date: Dec. 28, 1976, 6:38 a.m. UTC

Rocket: Molniya-M

Launch pad: 43/4 (43R)

Location: Plesetsk Cosmodrome, Russian Federation

...

Latest news about this satellite

There are no fresh news available about this satellite. Check back as we update our databases every day.


Newsletter sign-up

Weekly statistics, charts and insights to help you stay on top of the space industry.